Sharm El Sheikh, Egypt

12:41 PM EET on May 26, 2018 (GMT +0200)
Sharm El Sheikh

Weather History for HESH - February, 2013

Change the Weather History Date:

Thursday, February 7, 2013

  Actual Average Record
Temperature  
Mean Temperature 69 °F -  
Max Temperature 78 °F 74 °F - ()
Min Temperature 60 °F 57 °F - ()
Cooling Degree Days 4    
Growing Degree Days 19 (Base 50)    
Moisture  
Dew Point 42 °F    
Average Humidity 40    
Maximum Humidity 59    
Minimum Humidity 26    
Precipitation  
Precipitation 0.00 in 0.00 in - ()
Sea Level Pressure  
Sea Level Pressure 30.01 in    
Wind  
Wind Speed 8 mph ()    
Max Wind Speed 15 mph    
Max Gust Speed -    
T = Trace of Precipitation, MM = Missing Value Source: Averaged Metar Reports

Daily Weather History Graph

Daily Weather History Graph

Search for Another Location

Airport or City:

Astronomy

Feb. 07, 2013 Rise Set
Actual Time 6:26 AM EET 5:27 PM EET
Civil Twilight 6:01 AM EET 5:51 PM EET
Nautical Twilight 5:33 AM EET 6:19 PM EET
Astronomical Twilight 5:06 AM EET 6:47 PM EET
Moon 3:38 AM EET (2/7) 2:36 PM EET (2/7)
Length of Visible Light 11h 50m
Length of Day
11h 01m
Waning Crescent, 11% of the Moon is Illuminated
Feb 7
Waning Crescent
Feb 10
New
Feb 17
First Quarter
Feb 25
Full
Mar 4
Last Quarter

Hourly Weather History & Observations

Time (EET) Temp. Dew Point Humidity Pressure Visibility Wind Dir Wind Speed Gust Speed Precip Events Conditions
12:00 AM 64.4 °F 28.4 °F 26% 30.01 in - WNW 5.8 mph - N/A   Clear
1:00 AM 62.6 °F 32.0 °F 32% 30.01 in - North 5.8 mph - N/A   Clear
2:00 AM 62.6 °F 41.0 °F 45% 30.01 in - North 11.5 mph - N/A   Clear
3:00 AM 60.8 °F 42.8 °F 52% 30.01 in - North 9.2 mph - N/A   Clear
4:00 AM 60.8 °F 42.8 °F 52% 30.01 in - North 10.4 mph - N/A   Clear
5:00 AM 60.8 °F 37.4 °F 42% 30.01 in - North 6.9 mph - N/A   Clear
6:00 AM 60.8 °F 39.2 °F 45% 30.04 in - North 11.5 mph - N/A   Clear
7:00 AM 60.8 °F 39.2 °F 45% 30.04 in - North 10.4 mph - N/A   Clear
8:00 AM 64.4 °F 41.0 °F 42% 30.06 in - North 9.2 mph - N/A   Clear
9:00 AM 69.8 °F 41.0 °F 35% 30.06 in - North 15.0 mph - N/A   Clear
10:00 AM 69.8 °F 41.0 °F 35% 30.09 in - NNE 15.0 mph - N/A   Clear
11:00 AM 73.4 °F 41.0 °F 31% 30.06 in - NNE 11.5 mph - N/A   Clear
12:00 PM 77.0 °F 42.8 °F 29% 30.04 in - NNE 9.2 mph - N/A   Clear
1:00 PM 78.8 °F 42.8 °F 28% 30.01 in - NNE 9.2 mph - N/A   Clear
2:00 PM 77.0 °F 42.8 °F 29% 29.98 in - NNE 10.4 mph - N/A   Clear
3:00 PM 77.0 °F 42.8 °F 29% 29.98 in - NNE 10.4 mph - N/A   Clear
4:00 PM 75.2 °F 44.6 °F 34% 29.98 in - NNE 11.5 mph - N/A   Clear
5:00 PM 71.6 °F 42.8 °F 35% 29.98 in - NNE 9.2 mph - N/A   Clear
6:00 PM 68.0 °F 44.6 °F 43% 29.98 in - North 6.9 mph - N/A   Clear
7:00 PM 66.2 °F 46.4 °F 49% 29.98 in - NNW 8.1 mph - N/A   Clear
8:00 PM 66.2 °F 44.6 °F 46% 29.98 in - NNW 5.8 mph - N/A   Clear
9:00 PM 64.4 °F 44.6 °F 49% 29.98 in - NNW 4.6 mph - N/A   Clear
10:00 PM 62.6 °F 44.6 °F 52% 29.98 in - North 4.6 mph - N/A   Clear
11:00 PM 62.6 °F 48.2 °F 59% 29.95 in - North 6.9 mph - N/A   Clear